TimeAKST,TemperatureF,Dew PointF,Humidity,Sea Level PressureIn,VisibilityMPH,Wind Direction,Wind SpeedMPH,Gust SpeedMPH,PrecipitationIn,Events,Conditions,WindDirDegrees,DateUTC
12:14 AM,33.8,33.8,100,29.29,1.8,ESE,15.0,-,0.06,Snow,Light Snow,120,2012-12-03 09:14:00
12:36 AM,33.8,32.0,93,29.30,3.0,South,4.6,-,0.09,Snow,Light Snow,180,2012-12-03 09:36:00
12:53 AM,35.1,33.1,92,29.31,10.0,SSE,8.1,-,0.10,Rain,Light Rain,150,2012-12-03 09:53:00
1:03 AM,35.6,33.8,93,29.30,10.0,South,5.8,-,0.00,,Overcast,170,2012-12-03 10:03:00
1:42 AM,35.6,33.8,93,29.31,5.0,SSE,10.4,19.6,0.02,Rain,Light Rain,160,2012-12-03 10:42:00
1:53 AM,35.1,34.0,96,29.32,7.0,South,8.1,-,0.03,Rain,Light Rain,170,2012-12-03 10:53:00
2:02 AM,35.6,33.8,93,29.32,10.0,South,6.9,-,0.00,Rain,Light Rain,170,2012-12-03 11:02:00
2:25 AM,35.6,33.8,93,29.32,6.0,South,6.9,-,0.01,Rain,Rain,170,2012-12-03 11:25:00
3:53 AM,37.0,35.1,93,29.34,10.0,South,8.1,-,0.01,,Overcast,170,2012-12-03 12:53:00
4:53 AM,37.0,35.1,93,29.35,10.0,SSE,10.4,-,0.03,Rain,Light Rain,160,2012-12-03 13:53:00
5:15 AM,37.4,35.6,93,29.35,10.0,SSE,9.2,-,0.01,Rain,Light Rain,150,2012-12-03 14:15:00
5:53 AM,37.0,35.1,93,29.37,9.0,SE,12.7,-,0.04,Rain,Light Rain,140,2012-12-03 14:53:00
6:11 AM,37.4,35.6,93,29.37,7.0,SE,13.8,-,0.01,Rain,Light Rain,140,2012-12-03 15:11:00
6:53 AM,36.0,35.1,97,29.39,10.0,SSE,8.1,-,0.04,Rain,Light Rain,150,2012-12-03 15:53:00
7:53 AM,36.0,34.0,93,29.40,10.0,SSE,12.7,-,0.00,,Overcast,150,2012-12-03 16:53:00
8:53 AM,37.0,34.0,89,29.42,10.0,SSE,11.5,18.4,N/A,,Overcast,150,2012-12-03 17:53:00
9:53 AM,37.0,35.1,93,29.45,10.0,SSE,8.1,17.3,0.01,,Overcast,160,2012-12-03 18:53:00
10:53 AM,37.9,36.0,93,29.46,10.0,SSE,8.1,-,0.01,Rain,Light Rain,160,2012-12-03 19:53:00
11:53 AM,37.9,35.1,89,29.46,8.0,SE,11.5,19.6,0.03,Rain,Light Rain,140,2012-12-03 20:53:00
12:53 PM,37.0,35.1,93,29.46,6.0,SE,13.8,24.2,0.05,Rain,Rain,140,2012-12-03 21:53:00
1:53 PM,37.0,35.1,93,29.44,10.0,South,6.9,17.3,0.06,Rain,Light Rain,170,2012-12-03 22:53:00
2:53 PM,39.0,35.1,86,29.41,10.0,SSE,16.1,27.6,0.01,,Overcast,150,2012-12-03 23:53:00
3:53 PM,39.0,35.1,86,29.37,10.0,SSE,13.8,21.9,0.00,Rain,Light Rain,150,2012-12-04 00:53:00
4:53 PM,39.9,34.0,79,29.32,10.0,SE,24.2,31.1,0.00,Rain,Light Rain,130,2012-12-04 01:53:00
5:06 PM,39.2,33.8,81,29.31,10.0,SSE,16.1,24.2,0.01,Rain,Light Rain,150,2012-12-04 02:06:00
5:53 PM,37.9,34.0,86,29.31,10.0,SSE,12.7,19.6,0.02,Rain,Light Rain,160,2012-12-04 02:53:00
6:53 PM,37.9,34.0,86,29.29,10.0,SSE,9.2,25.3,0.00,,Overcast,150,2012-12-04 03:53:00
7:53 PM,37.9,34.0,86,29.28,10.0,SSE,13.8,20.7,0.00,Rain,Light Rain,150,2012-12-04 04:53:00
8:53 PM,37.9,34.0,86,29.26,10.0,SSE,10.4,19.6,0.07,Rain,Light Rain,160,2012-12-04 05:53:00
9:18 PM,35.6,33.8,93,29.25,10.0,South,6.9,17.3,0.00,,Overcast,180,2012-12-04 06:18:00
9:36 PM,35.6,33.8,93,29.25,10.0,Variable,6.9,17.3,0.00,,Overcast,0,2012-12-04 06:36:00
9:48 PM,35.6,33.8,93,29.23,10.0,South,6.9,16.1,0.00,Rain,Light Rain,180,2012-12-04 06:48:00
9:53 PM,36.0,34.0,93,29.24,10.0,SSW,6.9,16.1,0.00,Rain,Light Rain,200,2012-12-04 06:53:00
10:24 PM,35.6,33.8,93,29.23,7.0,South,6.9,-,0.03,Rain,Rain,190,2012-12-04 07:24:00
10:53 PM,35.1,33.1,92,29.23,5.0,South,8.1,-,0.08,Rain,Rain,180,2012-12-04 07:53:00
11:53 PM,35.1,33.1,92,29.21,8.0,Variable,3.5,-,0.10,Rain,Light Rain,0,2012-12-04 08:53:00